Portada
METAR-TAF:

METAR-TAF

Aeroports :

Santa Ana del Yacuma, Bolívia

latitud: 13-46S, longitud: 065-26W, altitud: 144 m

Observació

L'informe es va fer fa 9 hores i 48 minuts, a les 23:00 UTC
Vent calma
Temperatura 29°C
Humitat 70%
Pressió 1011 hPa
Visibilitat: 8000 m

METAR: SLSA 042300Z 00000KT 8000 NSC 29/23 Q1011

Hora: 04:48 (08:48 UTC)


TAF: manca

Observacions i pronòstics meteorològics de més de 4000 aeroports (METAR i TAF).

Les estacions disponibles són els punts grocs i vermells al mapa.

Posi el ratolí al punt desitjat per veure el nom de l'estació.

Feu clic per veure les observacions i els pronòstics meteorològics.

Per canviar el mapa: feu clic els botons verds amb una creu de color negre per apropar; al botó verd amb un guió per allunyar la imatge; o en les fletxes verdes per a mapes adjacents.


METAR-TAF: